CAPE
0 0 0 0 0 0 0 0 0 0 4 6 7 8 13 2 5 2 1 1 2 1
0 0 0 0 0 0 0 0 1 7 12 13 7 1 2 5 7 10 6 16 11 8
0 0 0 0 0 0 0 7 4 5 4 4 0 1 2 5 3 10 14 11 8 10
0 0 0 0 0 1 4 0 1 1 3 7 4 3 3 7 5 1 0 1 2 0
0 0 1 5 4 9 12 16 13 12 6 3 4 14 1 2 1 0 0 0 0 0
4 6 7 12 11 16 16 18 25 17 9 13 17 16 6 4 1 2 0 0 0 0
8 11 21 18 20 21 15 11 12 12 13 5 0 0 0 0 1 0 0 0 0 0
2 6 11 9 8 6 6 1 0 0 0 0 0 0 0 0 0 0 0 0 0 0
3 5 4 0 0 0 0 0 0 0 0 0 0 0 0 0 0 0 0 0 0 0
8 5 0 0 0 0 0 0 0 0 0 0 0 0 0 0 0 0 0 0 0 0
2 0 0 0 0 0 0 0 0 0 0 0 0 0 0 0 0 0 0 1 0 0
0 0 0 0 0 0 0 0 0 0 0 0 0 0 0 0 0 0 0 2 3 1
0 0 0 0 0 0 0 0 0 0 1 2 1 1 3 2 2 4 5 2 4 1
0 0 0 0 0 0 0 2 0 1 3 7 6 3 3 4 0 8 7 7 6 8
CIN
-0 -0 -0 -0 -0 -0 -0 -0 -0 -1 -1 -1 -1 -1 -0 -8 -0 -0 -0 -0 -0 -0
-0 -0 -0 -0 -0 -0 -0 -0 -1 -0 -0 -1 -1 -2 -1 -0 -0 -0 -0 -0 -3 -11
-0 -0 -0 -0 -0 -0 -0 -0 -2 -2 -1 -1 -0 -0 -0 -0 -1 -0 -0 -1 -2 -3
-0 -0 -0 -0 -0 -1 -1 -0 -1 -1 -0 -0 -0 -0 -0 -0 -2 -1 -3 -3 -2 -1
-0 -0 -1 -1 -1 -0 -1 -1 -0 -0 -0 -0 -0 -0 -1 -2 -3 -0 -0 -0 -0 -0
-2 -1 -1 -1 -0 -0 -1 -1 -0 -0 -0 -0 -0 -1 -2 -2 -4 -4 -1 -0 -0 -0
-1 -1 -0 -0 -1 -1 -1 -1 -1 -1 -2 -1 -0 -0 -1 -2 -1 -1 -3 -1 -0 -0
-1 -1 -1 -1 -2 -1 -1 -0 -0 -0 -0 -0 -0 -0 -0 -0 -0 -0 -0 -0 -2 -0
-1 -2 -2 -0 -0 -0 -0 -0 -0 -0 -0 -0 -0 -0 -0 -0 -0 -0 -0 -0 -0 -0
-2 -3 -0 -0 -0 -0 -0 -0 -0 -0 -0 -0 -0 -0 -0 -0 -0 -0 -0 -0 -0 -0
-2 -0 -0 -0 -0 -0 -0 -0 -0 -0 -0 -0 -0 -0 -0 -0 -0 -0 -0 -1 -2 -0
-0 -0 -0 -0 -0 -0 -0 -0 -0 -0 -0 -0 -0 -0 -0 -1 -1 -2 -2 -1 -1 -2
-0 -0 -0 -0 -0 -0 -0 -0 -3 -1 -1 -1 -2 -2 -1 -1 -2 -1 -1 -2 -2 -3
-0 -0 -0 -0 -0 -1 -1 -2 -3 -3 -2 -1 -2 -1 -1 -1 -3 -1 -1 -2 -2 -2
Wind_Speed
39 40 42 44 46 46 46 44 42 36 34 32 31 31 31 32 31 31 31 31 29 29
39 41 42 44 44 42 41 39 35 32 33 32 31 31 33 32 33 32 31 28 26 26
39 40 41 42 42 41 38 34 31 31 30 30 32 33 32 31 28 25 25 24 25 28
40 40 40 40 39 37 35 33 30 29 30 32 33 32 28 26 25 25 26 28 30 31
39 38 39 38 36 35 34 31 31 31 32 33 31 29 29 27 26 27 30 31 32 34
38 38 38 37 35 33 32 32 32 31 31 30 30 30 28 27 29 32 34 34 35 35
40 37 37 36 35 34 33 32 30 30 31 31 31 31 30 32 33 35 35 35 34 34
37 35 35 35 34 34 33 32 32 31 30 30 30 29 33 33 34 35 36 35 35 34
36 36 35 34 33 34 33 32 31 31 31 32 31 30 35 36 37 38 38 39 38 38
35 34 33 33 33 32 32 32 32 32 32 33 33 33 36 38 38 38 37 38 39 39
33 31 32 32 31 32 32 32 33 33 33 34 33 34 36 38 37 36 37 37 38 39
29 30 30 30 31 32 32 33 32 32 33 33 34 35 37 37 37 36 37 37 37 36
26 27 27 29 30 31 31 31 31 32 32 33 33 34 36 35 35 36 35 35 35 34
24 24 27 28 30 31 31 30 30 30 31 31 32 33 32 33 33 35 36 36 35 34
Wind_Direction
332 331 330 329 328 326 325 325 325 325 326 325 326 325 326 327 324 322 318 314 311 308
333 332 331 330 329 328 327 327 327 327 325 326 327 327 326 325 322 320 319 318 313 313
335 334 334 333 332 332 332 332 330 330 328 329 330 329 328 327 325 324 324 321 316 309
336 336 337 336 336 336 336 335 334 333 331 329 327 327 328 326 326 325 323 320 313 311
337 338 339 339 338 337 337 336 334 334 331 330 331 329 329 326 323 321 318 315 313 311
339 338 339 339 338 337 337 336 335 334 333 333 333 330 328 325 321 317 315 314 311 310
338 338 339 341 341 342 341 338 338 336 334 332 330 328 326 323 319 316 314 313 313 311
342 342 341 341 341 342 341 340 339 338 338 337 334 333 329 326 322 318 315 314 312 311
342 343 343 343 342 342 342 342 342 341 339 336 334 332 329 325 320 317 313 310 309 308
343 343 345 344 344 344 344 343 342 340 338 336 333 333 329 326 322 318 315 312 309 307
344 345 345 345 346 346 345 344 342 341 340 337 336 335 332 329 325 321 317 313 309 305
345 346 347 348 347 347 346 345 345 344 342 340 338 336 333 331 327 322 317 314 311 307
345 347 349 348 348 349 348 348 348 346 345 342 340 339 337 336 332 325 321 316 311 309
345 349 349 350 350 350 351 350 350 348 347 346 345 343 343 340 336 327 318 313 309 303